Fernandina Beach, FL

11:07 AM EST on December 10, 2019 (GMT -0500)
Fernandina Beach

Weather History for KFHB - October, 2019

Change the Weather History Date:

Tuesday, October 8, 2019

  Actual Average (WUND) Record (WUND)
Temperature  
Mean Temperature 78 °F -  
Max Temperature 81 °F - - (-1)
Min Temperature 74 °F - - (-1)
Cooling Degree Days 12    
Growing Degree Days 28 (Base 50)    
Moisture  
Dew Point 73 °F    
Average Humidity 89    
Maximum Humidity 99    
Minimum Humidity 71    
Precipitation  
Precipitation 0.38 in - - ()
Sea Level Pressure  
Sea Level Pressure 29.93 in    
Wind  
Wind Speed 9 mph (NNE)    
Max Wind Speed 18 mph    
Max Gust Speed 22 mph    
Visibility 10 miles    
Events Rain    
Averages and records for this station are not official NWS values.
T = Trace of Precipitation, MM = Missing Value Source: NWS Daily Summary

Daily Weather History Graph

Daily Weather History Graph

Search for Another Location

Airport or City:

Astronomy

Oct. 08, 2019 Rise Set
Actual Time 7:23 AM EDT 7:02 PM EDT
Civil Twilight 6:59 AM EDT 7:26 PM EDT
Nautical Twilight 6:31 AM EDT 7:54 PM EDT
Astronomical Twilight 6:03 AM EDT 8:22 PM EDT
Moon 4:36 PM EDT (10/8) 2:38 AM EDT (10/8)
Length of Visible Light 12h 27m
Length of Day
11h 39m
Waxing Gibbous, 77% of the Moon is Illuminated
Oct 8
Waxing Gibbous
Oct 13
Full
Oct 21
Last Quarter
Oct 27
New
Nov 4
First Quarter

Hourly Weather History & Observations

Time (EDT) Temp. Heat Index Dew Point Humidity Pressure Visibility Wind Dir Wind Speed Gust Speed Precip Events Conditions
12:15 AM 75.6 °F - 73.4 °F 93% 29.93 in 10.0 mi NE 5.8 mph - N/A   Scattered Clouds
12:35 AM 75.6 °F - 73.9 °F 95% 29.92 in 10.0 mi NNE 5.8 mph - N/A   Scattered Clouds
12:55 AM 75.0 °F - 73.8 °F 96% 29.92 in 10.0 mi NNW 4.6 mph - 0.01 in   Mostly Cloudy
1:15 AM 74.1 °F - 73.8 °F 99% 29.91 in 10.0 mi NNW 4.6 mph - N/A   Overcast
1:35 AM 74.5 °F - 74.1 °F 99% 29.91 in 10.0 mi NNW 8.1 mph - N/A   Overcast
1:55 AM 74.7 °F - 74.1 °F 98% 29.91 in 10.0 mi North 8.1 mph - N/A   Overcast
2:15 AM 74.5 °F - 73.9 °F 98% 29.91 in 10.0 mi North 8.1 mph - 0.01 in   Mostly Cloudy
2:35 AM 74.7 °F - 73.9 °F 98% 29.90 in 10.0 mi North 10.4 mph - 0.01 in   Overcast
2:55 AM 74.3 °F - 73.6 °F 98% 29.89 in 10.0 mi North 8.1 mph - 0.01 in   Overcast
3:15 AM 74.5 °F - 73.9 °F 98% 29.89 in 10.0 mi North 6.9 mph - N/A   Overcast
3:35 AM 74.8 °F - 74.1 °F 98% 29.89 in 10.0 mi North 8.1 mph - 0.01 in   Overcast
3:55 AM 74.8 °F - 74.3 °F 98% 29.88 in 10.0 mi North 6.9 mph - 0.01 in Rain Light Rain
4:15 AM 74.8 °F - 74.3 °F 98% 29.88 in 10.0 mi North 6.9 mph - N/A   Scattered Clouds
4:35 AM 75.0 °F - 74.5 °F 98% 29.88 in 7.0 mi NW 10.4 mph - N/A Rain Heavy Rain
4:55 AM 75.4 °F - 75.0 °F 99% 29.88 in 10.0 mi NNW 9.2 mph - 0.01 in   Mostly Cloudy
5:15 AM 75.4 °F - 74.8 °F 98% 29.88 in 10.0 mi North 8.1 mph - N/A   Scattered Clouds
5:35 AM 75.4 °F - 74.5 °F 97% 29.89 in 10.0 mi North 8.1 mph - N/A Rain Light Rain
5:55 AM 75.0 °F - 74.3 °F 98% 29.89 in 10.0 mi North 5.8 mph - N/A   Mostly Cloudy
6:15 AM 75.0 °F - 74.5 °F 98% 29.89 in 10.0 mi North 6.9 mph - 0.01 in   Mostly Cloudy
6:35 AM 75.0 °F - 74.5 °F 98% 29.90 in 10.0 mi North 8.1 mph - 0.01 in   Scattered Clouds
6:55 AM 75.2 °F - 74.5 °F 98% 29.90 in 10.0 mi North 6.9 mph - 0.01 in   Scattered Clouds
7:15 AM 75.0 °F - 74.7 °F 99% 29.91 in 10.0 mi North 6.9 mph - N/A   Mostly Cloudy
7:35 AM 74.7 °F - 74.3 °F 99% 29.91 in 10.0 mi North 8.1 mph - 0.01 in   Mostly Cloudy
7:55 AM 74.5 °F - 74.3 °F 99% 29.91 in 7.0 mi North 8.1 mph - 0.01 in   Overcast
8:15 AM 74.5 °F - 74.1 °F 99% 29.92 in 7.0 mi North 8.1 mph - N/A   Overcast
8:35 AM 74.8 °F - 74.5 °F 99% 29.92 in 7.0 mi North 8.1 mph - 0.01 in   Overcast
8:55 AM 75.0 °F - 74.7 °F 99% 29.93 in 2.5 mi NNE 11.5 mph - 0.01 in Rain Rain
9:15 AM 74.8 °F - 74.5 °F 99% 29.93 in 5.0 mi North 9.2 mph - N/A Rain Light Rain
9:35 AM 75.0 °F - 74.5 °F 98% 29.93 in 7.0 mi NNE 6.9 mph - 0.01 in Rain Light Rain
9:55 AM 75.9 °F - 75.2 °F 98% 29.94 in 7.0 mi North 10.4 mph - 0.01 in   Overcast
10:15 AM 76.3 °F - 75.4 °F 97% 29.95 in 10.0 mi NNE 4.6 mph - 0.01 in Rain Light Rain
10:35 AM 77.9 °F - 76.3 °F 95% 29.95 in 10.0 mi NNE 6.9 mph - 0.01 in   Overcast
10:55 AM 77.9 °F - 75.2 °F 91% 29.95 in 10.0 mi NNE 9.2 mph - 0.02 in   Overcast
11:15 AM 78.4 °F - 75.0 °F 89% 29.96 in 10.0 mi NNE 8.1 mph - N/A   Overcast
11:35 AM 79.2 °F - 75.0 °F 87% 29.96 in 10.0 mi NE 9.2 mph - 0.01 in   Overcast
11:55 AM 79.7 °F - 73.9 °F 82% 29.96 in 10.0 mi NE 10.4 mph - 0.02 in   Mostly Cloudy
12:15 PM 79.9 °F - 74.1 °F 82% 29.95 in 10.0 mi NE 13.8 mph - N/A   Scattered Clouds
12:55 PM 78.1 °F - 75.0 °F 90% 29.94 in 7.0 mi NNE 13.8 mph - 0.02 in Rain Light Rain
1:15 PM 78.3 °F - 75.0 °F 90% 29.94 in 10.0 mi NNE 6.9 mph - 0.01 in   Mostly Cloudy
1:35 PM 80.1 °F 85.8 °F 76.8 °F 90% 29.94 in 10.0 mi North 10.4 mph - 0.02 in   Mostly Cloudy
1:55 PM 79.0 °F - 76.1 °F 91% 29.93 in 10.0 mi NNE 15.0 mph 18.4 mph 0.03 in Rain Light Rain
2:15 PM 81.1 °F 87.8 °F 76.1 °F 85% 29.92 in 10.0 mi NNE 12.7 mph 16.1 mph N/A   Overcast
2:35 PM 80.8 °F 86.5 °F 75.0 °F 83% 29.92 in 10.0 mi NNE 15.0 mph 19.6 mph 0.01 in   Overcast
2:55 PM 81.5 °F 87.8 °F 75.0 °F 81% 29.91 in 10.0 mi NE 18.4 mph - 0.02 in   Mostly Cloudy
3:15 PM 81.9 °F 87.7 °F 74.1 °F 77% 29.91 in 10.0 mi NE 17.3 mph 20.7 mph 0.01 in   Mostly Cloudy
3:55 PM 81.0 °F 85.1 °F 71.6 °F 73% 29.91 in 10.0 mi NE 17.3 mph - 0.03 in   Overcast
4:15 PM 80.4 °F 84.1 °F 71.2 °F 73% 29.91 in 10.0 mi NE 12.7 mph 21.9 mph 0.01 in   Overcast
4:35 PM 80.6 °F 84.4 °F 71.1 °F 73% 29.92 in 10.0 mi NNE 16.1 mph - 0.02 in   Mostly Cloudy
4:55 PM 79.7 °F - 71.8 °F 77% 29.92 in 10.0 mi NE 13.8 mph - 0.03 in   Scattered Clouds
5:15 PM 79.5 °F - 70.7 °F 74% 29.92 in 10.0 mi NE 13.8 mph - 0.01 in   Clear
5:35 PM 80.6 °F 84.1 °F 70.5 °F 71% 29.92 in 10.0 mi NE 11.5 mph - 0.01 in   Clear
5:55 PM 78.4 °F - 69.8 °F 75% 29.92 in 10.0 mi NE 10.4 mph 19.6 mph 0.02 in   Clear
6:15 PM 78.4 °F - 70.0 °F 75% 29.92 in 10.0 mi NE 10.4 mph - 0.01 in   Clear
6:35 PM 78.4 °F - 70.7 °F 77% 29.93 in 10.0 mi ENE 15.0 mph - 0.02 in   Clear
6:55 PM 77.9 °F - 71.1 °F 79% 29.93 in 10.0 mi NE 11.5 mph - 0.03 in   Clear
7:15 PM 77.5 °F - 71.4 °F 81% 29.93 in 10.0 mi NE 13.8 mph 17.3 mph N/A   Clear
7:35 PM 77.5 °F - 72.1 °F 83% 29.94 in 10.0 mi NE 12.7 mph - 0.01 in   Scattered Clouds
7:55 PM 77.5 °F - 72.1 °F 83% 29.94 in 10.0 mi ENE 11.5 mph 18.4 mph 0.02 in   Scattered Clouds
8:15 PM 77.4 °F - 71.6 °F 82% 29.94 in 10.0 mi ENE 11.5 mph - 0.01 in   Scattered Clouds
8:35 PM 77.4 °F - 70.5 °F 79% 29.95 in 10.0 mi ENE 15.0 mph - 0.01 in   Clear
8:55 PM 77.4 °F - 71.6 °F 82% 29.96 in 10.0 mi East 12.7 mph - 0.02 in   Clear
9:15 PM 77.4 °F - 71.6 °F 82% 29.96 in 10.0 mi East 13.8 mph - N/A   Clear
9:35 PM 77.7 °F - 71.2 °F 80% 29.96 in 10.0 mi East 15.0 mph - 0.01 in   Clear
9:55 PM 77.7 °F - 70.9 °F 79% 29.97 in 10.0 mi ENE 10.4 mph - 0.01 in   Clear
10:15 PM 77.5 °F - 71.4 °F 81% 29.97 in 10.0 mi ENE 11.5 mph - 0.01 in   Clear
10:35 PM 78.1 °F - 69.8 °F 76% 29.98 in 10.0 mi ENE 13.8 mph - 0.01 in   Mostly Cloudy
10:55 PM 77.9 °F - 72.0 °F 82% 29.98 in 10.0 mi ENE 12.7 mph - 0.02 in   Overcast
11:15 PM 77.5 °F - 71.2 °F 81% 29.98 in 10.0 mi ENE 12.7 mph - N/A   Scattered Clouds
11:35 PM 77.5 °F - 71.1 °F 80% 29.99 in 10.0 mi ENE 13.8 mph - 0.01 in   Scattered Clouds
11:55 PM 77.4 °F - 70.7 °F 80% 29.99 in 10.0 mi ENE 15.0 mph 18.4 mph 0.01 in   Scattered Clouds